Teterboro, NJ

12:17 AM EDT on May 29, 2017 (GMT -0400)
Teterboro

Weather History for KTEB - July, 2012

Change the Weather History Date:

Tuesday, July 31, 2012

  Actual Average Record
Temperature  
Mean Temperature 74 °F -  
Max Temperature 81 °F 83 °F 95 °F (2006)
Min Temperature 69 °F 64 °F 60 °F (2001)
Cooling Degree Days 10    
Growing Degree Days 24 (Base 50)    
Moisture  
Dew Point 64 °F    
Average Humidity 71    
Maximum Humidity 84    
Minimum Humidity 54    
Precipitation  
Precipitation 0.00 in - - ()
Sea Level Pressure  
Sea Level Pressure 30.00 in    
Wind  
Wind Speed 5 mph (East)    
Max Wind Speed 10 mph    
Max Gust Speed -    
Visibility 10 miles    
Events      
Averages and records for this station are not official NWS values.
T = Trace of Precipitation, MM = Missing Value Source: NWS Daily Summary

Daily Weather History Graph

Daily Weather History Graph

Search for Another Location

Airport or City:

Trip Planner

Search our weather history database for the weather conditions in past years. The results will help you decide how hot, cold, wet, or windy it might be!

Date:

Astronomy

Jul. 31, 2012 Rise Set
Actual Time 5:52 AM EDT 8:12 PM EDT
Civil Twilight 5:21 AM EDT 8:43 PM EDT
Nautical Twilight 4:42 AM EDT 9:21 PM EDT
Astronomical Twilight 4:00 AM EDT 10:03 PM EDT
Moon 6:59 PM EDT (7/31) 4:09 AM EDT (7/31)
Length of Visible Light 15h 22m
Length of Day
14h 20m
Waxing Gibbous, 97% of the Moon is Illuminated
Jul 31
Waxing Gibbous
Aug 1
Full
Aug 9
Last Quarter
Aug 17
New
Aug 24
First Quarter

Hourly Weather History & Observations

Time (EDT) Temp. Heat Index Dew Point Humidity Pressure Visibility Wind Dir Wind Speed Gust Speed Precip Events Conditions
12:36 AM 71.6 °F - 64.4 °F 78% 30.08 in 10.0 mi SE 6.9 mph - N/A   Scattered Clouds
12:51 AM 72.0 °F - 64.9 °F 78% 30.08 in 10.0 mi ESE 5.8 mph - N/A   Partly Cloudy
1:51 AM 71.1 °F - 64.0 °F 78% 30.07 in 10.0 mi Calm Calm - N/A   Clear
2:51 AM 70.0 °F - 64.0 °F 81% 30.06 in 10.0 mi Calm Calm - N/A   Scattered Clouds
3:21 AM 69.8 °F - 64.4 °F 83% 30.06 in 10.0 mi NE 3.5 mph - N/A   Overcast
3:51 AM 69.8 °F - 64.4 °F 83% 30.06 in 10.0 mi NE 4.6 mph - N/A   Overcast
4:07 AM 69.8 °F - 64.4 °F 83% 30.05 in 10.0 mi NNE 4.6 mph - N/A   Overcast
4:51 AM 71.1 °F - 64.9 °F 81% 30.06 in 10.0 mi Calm Calm - N/A   Overcast
5:51 AM 71.1 °F - 64.9 °F 81% 30.05 in 10.0 mi NE 3.5 mph - N/A   Overcast
6:51 AM 71.1 °F - 64.9 °F 81% 30.04 in 10.0 mi ENE 3.5 mph - N/A   Overcast
7:51 AM 73.0 °F - 64.9 °F 76% 30.04 in 10.0 mi Variable 3.5 mph - N/A   Overcast
8:51 AM 73.9 °F - 64.9 °F 73% 30.04 in 10.0 mi East 5.8 mph - N/A   Scattered Clouds
9:51 AM 75.9 °F - 64.9 °F 69% 30.03 in 10.0 mi ENE 9.2 mph - N/A   Partly Cloudy
10:51 AM 77.0 °F - 62.1 °F 60% 30.03 in 10.0 mi East 10.4 mph - N/A   Partly Cloudy
11:51 AM 78.1 °F - 62.1 °F 58% 30.02 in 10.0 mi ENE 8.1 mph - N/A   Mostly Cloudy
12:51 PM 79.0 °F - 61.0 °F 54% 30.00 in 10.0 mi East 8.1 mph - N/A   Partly Cloudy
1:51 PM 79.0 °F - 62.1 °F 56% 29.97 in 10.0 mi NE 9.2 mph - N/A   Mostly Cloudy
2:51 PM 80.1 °F 81.5 °F 63.0 °F 56% 29.96 in 10.0 mi Calm Calm - N/A   Mostly Cloudy
3:51 PM 79.0 °F - 64.0 °F 60% 29.94 in 10.0 mi East 8.1 mph - N/A   Mostly Cloudy
4:51 PM 78.1 °F - 64.9 °F 64% 29.93 in 10.0 mi East 4.6 mph - N/A   Mostly Cloudy
5:51 PM 78.1 °F - 66.0 °F 66% 29.92 in 10.0 mi East 5.8 mph - N/A   Mostly Cloudy
6:51 PM 77.0 °F - 64.4 °F 65% 29.91 in 10.0 mi East 8.1 mph - N/A   Clear
7:51 PM 75.0 °F - 63.0 °F 66% 29.91 in 10.0 mi East 5.8 mph - N/A   Clear
8:51 PM 75.0 °F - 63.0 °F 66% 29.92 in 10.0 mi Calm Calm - N/A   Clear
9:51 PM 73.0 °F - 64.9 °F 76% 29.93 in 10.0 mi South 3.5 mph - N/A   Clear
11:51 PM 72.0 °F - 66.9 °F 84% 29.92 in 10.0 mi South 8.1 mph - N/A   Clear